sat.trackr.live / text

‹ back to catalog

STARLINK-32649

NORAD 62305 · 2024-239E

PAYLOAD ACTIVE UNKNOWN

§ Identity

Operator
Country
US
Launch date
2024-12-13
Launch site
AFWTR
Launch vehicle
Mass (kg)
RCS (m²)

Purposes: comms

External: N2YO · Heavens-Above · Gunter

§ Orbital elements

Epoch: 2026-09-21T11:52:27.536160Z

Period
93.85 min
Inclination
53.1603°
Eccentricity
0.0001042
Mean motion
15.34397377 rev/d
Perigee alt
462.0 km
Apogee alt
463.4 km
Semi-major
6,840.8 km
B*
2.3024e-4
RAAN
0.8046°
Arg perigee
99.3724°
Mean anomaly
260.7397°
Rev number
9,941

§ Raw data

STARLINK-326491 62305U 24239E   26264.49476315  .00007410  00000+0  23024-3 0  99902 62305  53.1603   0.8046 0001042  99.3724 260.7397 15.34397377 99411

JSON: /api/v1/satellites/62305 · /tle

For live sub-satellite position, see the globe view (requires WebGL).

§ Visibility from observer

Set your observer location to see the next 7 days of passes ≥ 10°. The values pass through the URL so the page stays shareable.

No JS? Fill the form by hand. The geolocation button needs JavaScript.